Regional Weather Roundup
Issued by NWS

Home | Current Version | Previous Version | Graphics & Text | Print | Product List | Glossary On
Versions: 1 2 3 4 5 6 7 8 9 10 11 12 13 14 15 16 17 18 19 20 21 22 23 24 25 26 27 28 29 30 31 32 33 34 35 36 37 38 39 40 41 42 43 44 45 46 47 48 49 50
000
ASUS43 KDMX 141206
RWRIA

WEATHER ROUNDUP FOR IOWA
NATIONAL WEATHER SERVICE DES MOINES IA
600 AM CST THU DEC 14 2017

NOTE: "FAIR" INDICATES FEW OR NO CLOUDS BELOW 12,000 FEET WITH NO
SIGNIFICANT WEATHER AND/OR OBSTRUCTIONS TO VISIBILITY.

* - THESE STATIONS ARE NOT NWS STATIONS...THUS NOT UNDER NWS
QUALITY CONTROL.  THEY ALSO DO NOT REPORT WEATHER SUCH
AS PRECIPITATION OR FOG.

IAZ001>003-012>014-020>022-031>034-043>046-141300-
   NORTHWEST IOWA

CITY           SKY/WX    TMP DP  RH WIND       PRES   REMARKS
CARROLL *      CLOUDY    27  19  74 NW9       30.02S WCI  17
CHEROKEE *     CLOUDY    25  21  86 NE3       30.03R
DENISON *      CLOUDY    27  21  80 NE3       30.03S
LE MARS *      CLOUDY    28  25  86 E5        30.02R WCI  23
ORANGE CITY *  CLOUDY    27  25  93 CALM      30.00R
SHELDON *      CLOUDY    23  21  93 CALM      29.99R
SIOUX CITY     CLOUDY    31  25  78 E6        30.02S WCI  25
6HR MIN TEMP:  30; 6HR MAX TEMP:  35;

SPENCER        CLOUDY    23  18  81 N10       30.01R WCI  12
6HR MIN TEMP:  19; 6HR MAX TEMP:  26;

STORM LAKE *   CLOUDY    23  19  86 N6        30.01R WCI  16
$$

IAZ055>058-069>071-079>083-090>094-141300-
   SOUTHWEST IOWA

CITY           SKY/WX    TMP DP  RH WIND       PRES   REMARKS
ATLANTIC *     CLOUDY    28  23  80 N5        30.02S WCI  23
AUDUBON *      MOCLDY    27  21  80 N3        30.02R
CLARINDA *     CLOUDY    32  25  74 NE6       30.05  WCI  26
COUNCIL BLFS * LGT RAIN  32  32 100 NW6       30.03R WCI  26
CRESTON *      CLOUDY    27  23  86 NW5       30.02S WCI  21
HARLAN  *      CLOUDY    28  25  86 CALM      30.05S
LAMONI         CLOUDY    28  19  69 N10       30.01R WCI  19
6HR MIN TEMP:  28; 6HR MAX TEMP:  34;

RED OAK *      CLOUDY    32  25  74 CALM      30.04R
SHENANDOAH *   CLOUDY    34  27  75 CALM      30.04S
$$

IAZ047>049-059>061-072>074-084-141300-
   CENTRAL IOWA

CITY           SKY/WX    TMP DP  RH WIND       PRES   REMARKS
AMES           CLOUDY    23  18  81 NW7       30.03R WCI  15
6HR MIN TEMP:  20; 6HR MAX TEMP:  28;

ANKENY *       CLOUDY    25  18  74 N6        30.05R WCI  18
BOONE *        CLOUDY    23  18  80 N7        30.01S WCI  15
CHARITON *     CLOUDY    27  18  69 N7        30.02R WCI  19
DES MOINES     CLOUDY    26  17  68 N6        30.04R WCI  19
6HR MIN TEMP:  26; 6HR MAX TEMP:  30;

GRINNELL*      CLOUDY    24  18  77 CALM      30.03R
KNOXVILLE *    CLOUDY    27  18  69 NW6       30.02R WCI  20
MARSHALLTOWN   CLOUDY    23  17  78 N3        30.02R
6HR MIN TEMP:  22; 6HR MAX TEMP:  25;

NEWTON *       CLOUDY    25  16  68 N7        30.03R WCI  17
PELLA *        CLOUDY    26  18  71 CALM      30.04R
PERRY *        CLOUDY    25  17  73 NE5       30.03R WCI  19
$$

IAZ004>006-015-016-023>025-035-036-141300-
   NORTH CENTRAL IOWA

CITY           SKY/WX    TMP DP  RH WIND       PRES   REMARKS
ALGONA *       CLOUDY    19  18  93 N5        30.01R WCI  13
CLARION *      CLOUDY    14  14 100 NW3       30.03R
ESTHERVILLE    CLOUDY    21  15  78 CALM      30.00R
6HR MIN TEMP:  21; 6HR MAX TEMP:  23;

FORT DODGE *   CLOUDY    22  17  81 CALM      30.03
MASON CITY     CLOUDY    14  11  87 CALM      30.03R
6HR MIN TEMP:  13; 6HR MAX TEMP:  23;

FOREST CITY *    N/A     18  14  86 NE3       30.02R
WEBSTER CITY * CLOUDY    19  16  86 W6        30.01R WCI  11
IOWA FALLS *   CLOUDY    24  17  74 NW7       30.03R WCI  16
$$

IAZ007>011-017>019-026>030-037>042-050>054-066-141300-
   NORTHEAST IOWA

CITY           SKY/WX    TMP DP  RH WIND       PRES   REMARKS
CEDAR RAPIDS   PTCLDY    13   9  84 NW6       30.01R WCI   4
6HR MIN TEMP:  13; 6HR MAX TEMP:  23;

CHARLES CITY * PTCLDY    12  12 100 W5        30.03R WCI   4
CLINTON *      CLOUDY    22  15  75 NE8       30.02R WCI  12
DECORAH *      CLOUDY     9   9 100 CALM      30.00R
DUBUQUE        CLOUDY    15  12  88 NE5       30.00R WCI   8
6HR MIN TEMP:  15; 6HR MAX TEMP:  21;

MONTICELLO *   CLOUDY    19  14  79 CALM      30.02R
OELWEIN *      CLOUDY    12  10  92 CALM      30.02R
WATERLOO       CLOUDY    17  13  84 N5        30.04R WCI  10
6HR MIN TEMP:  14; 6HR MAX TEMP:  21;

$$

IAZ064-065-067-068-078-141300-
   EAST CENTRAL IOWA

CITY           SKY/WX    TMP DP  RH WIND       PRES   REMARKS
DAVENPORT      MOCLDY    20  13  74 N6        30.03R WCI  12
6HR MIN TEMP:  19; 6HR MAX TEMP:  25;

IOWA CITY      CLOUDY    18  12  77 CALM      30.04R
6HR MIN TEMP:  17; 6HR MAX TEMP:  28;

MT. PLEASANT * PTCLDY    19  14  79 CALM      30.02R
MUSCATINE *    CLOUDY    18  14  86 N3        30.04R
QUAD CITIES    CLOUDY    24  16  71 N3        30.01R
6HR MIN TEMP:  23; 6HR MAX TEMP:  28;

$$

IAZ062-063-075>077-085>089-095>099-141300-
   SOUTHEAST IOWA

CITY           SKY/WX    TMP DP  RH WIND       PRES   REMARKS
BURLINGTON     PTCLDY    21  15  78 NW5       30.01R WCI  15
6HR MIN TEMP:  21; 6HR MAX TEMP:  28;

FAIRFIELD *    CLOUDY    19  12  73 NW6       30.02R WCI  11
FORT MADISON * PTCLDY    21  16  79 CALM      30.02R
KEOKUK *       CLOUDY    27  18  69 N3        30.01S
OSKALOOSA *    CLOUDY    23  16  73 NE3       30.03R
OTTUMWA        CLOUDY    25  15  66 NE6       30.02R WCI  18
6HR MIN TEMP:  25; 6HR MAX TEMP:  29;

WASHINGTON *   PTCLDY    18  14  86 NW5       30.03R WCI  11
$$

ABBREVIATIONS USED IN REMARKS
   TC - TEMPERATURES IN CELSIUS
  WCI - WIND CHILL INDEX
   HX - HEAT INDEX
  VSB - VISIBILITY
$$





USA.gov is the U.S. government's official web portal to all federal, state and local government web resources and services.